N605VV KENV-KTWF

Flight info

Callsign N605VV
Flight time 0h 26m
Altitude 16000
Route LCU V253 TWF
Aircraft CL60/M-SBDE1E2E3FGHIJ1J4J5J7M3RWXYZ/LB1V1D1

Departure

Time 2026-04-18 14:01
Airport Wendover Airport (KENV)

Arrival

Time 2026-04-18 14:28
Airport Joslin Field Magic Valley Regional Airport (KTWF)
Time Latitude Longitude Altitude Speed Heading
2026-04-18 13:45 40.72747 -114.03996 4235 ft 0 kts 94°
2026-04-18 13:54 40.72747 -114.03989 4235 ft 3 kts 99°
2026-04-18 13:54 40.72722 -114.03957 4234 ft 6 kts 173°
2026-04-18 13:54 40.72677 -114.03956 4234 ft 7 kts 195°
2026-04-18 13:54 40.72649 -114.04027 4234 ft 10 kts 245°
2026-04-18 13:55 40.72583 -114.04048 4234 ft 12 kts 142°
2026-04-18 13:55 40.72517 -114.03960 4233 ft 15 kts 135°
2026-04-18 13:55 40.72435 -114.03853 4232 ft 17 kts 135°
2026-04-18 13:55 40.72342 -114.03731 4231 ft 20 kts 135°
2026-04-18 13:56 40.72245 -114.03603 4230 ft 22 kts 135°
2026-04-18 13:56 40.72132 -114.03454 4228 ft 19 kts 135°
2026-04-18 13:56 40.72058 -114.03357 4228 ft 15 kts 134°
2026-04-18 13:56 40.72005 -114.03231 4227 ft 17 kts 95°
2026-04-18 13:57 40.72004 -114.03064 4227 ft 19 kts 89°
2026-04-18 13:57 40.72004 -114.02882 4226 ft 20 kts 90°
2026-04-18 13:57 40.72004 -114.02683 4226 ft 22 kts 90°
2026-04-18 13:57 40.72005 -114.02470 4226 ft 23 kts 89°
2026-04-18 13:58 40.72005 -114.02249 4226 ft 24 kts 90°
2026-04-18 13:58 40.72004 -114.02024 4226 ft 25 kts 90°
2026-04-18 13:58 40.72004 -114.01791 4226 ft 24 kts 90°
2026-04-18 13:58 40.72004 -114.01566 4227 ft 25 kts 89°
2026-04-18 13:59 40.72004 -114.01335 4227 ft 25 kts 90°
2026-04-18 13:59 40.72004 -114.01112 4227 ft 23 kts 89°
2026-04-18 13:59 40.72005 -114.00899 4227 ft 19 kts 90°
2026-04-18 13:59 40.72002 -114.00780 4228 ft 9 kts 108°
2026-04-18 14:00 40.71966 -114.00751 4228 ft 3 kts 174°
2026-04-18 14:00 40.71930 -114.00749 4227 ft 7 kts 190°
2026-04-18 14:00 40.71896 -114.00800 4227 ft 9 kts 268°
2026-04-18 14:00 40.71896 -114.00942 4227 ft 37 kts 270°
2026-04-18 14:01 40.71895 -114.01759 4226 ft 135 kts 270°
2026-04-18 14:01 40.71882 -114.03243 4583 ft 177 kts 269°
2026-04-18 14:01 40.71750 -114.04910 5398 ft 195 kts 252°
2026-04-18 14:01 40.70914 -114.06253 6199 ft 210 kts 207°
2026-04-18 14:02 40.69462 -114.06481 7091 ft 221 kts 167°
2026-04-18 14:02 40.68059 -114.05413 7642 ft 255 kts 129°
2026-04-18 14:02 40.67392 -114.03203 8613 ft 271 kts 92°
2026-04-18 14:02 40.67700 -114.00723 9775 ft 284 kts 74°
2026-04-18 14:03 40.68227 -113.98164 10847 ft 302 kts 75°
2026-04-18 14:03 40.68778 -113.95382 11758 ft 322 kts 75°
2026-04-18 14:03 40.69344 -113.92511 12750 ft 333 kts 74°
2026-04-18 14:03 40.69928 -113.89546 13815 ft 341 kts 73°
2026-04-18 14:04 40.70527 -113.86500 14877 ft 348 kts 73°
2026-04-18 14:04 40.71171 -113.83374 15610 ft 365 kts 69°
2026-04-18 14:04 40.71876 -113.81301 15854 ft 377 kts 57°
2026-04-18 14:04 40.74200 -113.78028 15989 ft 375 kts 31°
2026-04-18 14:05 40.76517 -113.76743 15994 ft 368 kts 10°
2026-04-18 14:05 40.79053 -113.76569 15990 ft 364 kts 354°
2026-04-18 14:05 40.81578 -113.76901 15991 ft 364 kts 352°
2026-04-18 14:05 40.84091 -113.77232 15993 ft 363 kts 353°
2026-04-18 14:06 40.86621 -113.77564 15990 ft 363 kts 353°
2026-04-18 14:06 40.89130 -113.77892 15983 ft 363 kts 353°
2026-04-18 14:06 40.91570 -113.78212 15986 ft 363 kts 353°
2026-04-18 14:06 40.94103 -113.78544 15989 ft 364 kts 353°
2026-04-18 14:07 40.96613 -113.78873 15986 ft 364 kts 353°
2026-04-18 14:07 40.99127 -113.79202 15987 ft 364 kts 353°
2026-04-18 14:07 41.00809 -113.79422 15990 ft 364 kts 352°
2026-04-18 14:07 41.04042 -113.79845 15984 ft 364 kts 352°
2026-04-18 14:08 41.09091 -113.80507 15985 ft 363 kts 352°
2026-04-18 14:08 41.11605 -113.80836 15985 ft 363 kts 352°
2026-04-18 14:08 41.14147 -113.81169 15988 ft 363 kts 352°
2026-04-18 14:09 41.16668 -113.81500 15991 ft 363 kts 353°
2026-04-18 14:09 41.19172 -113.81829 15992 ft 363 kts 353°
2026-04-18 14:09 41.21704 -113.82162 15994 ft 363 kts 353°
2026-04-18 14:09 41.24226 -113.82493 15992 ft 363 kts 353°
2026-04-18 14:10 41.26745 -113.82824 15988 ft 363 kts 353°
2026-04-18 14:10 41.29287 -113.83159 15989 ft 364 kts 353°
2026-04-18 14:10 41.31808 -113.83491 15983 ft 364 kts 353°
2026-04-18 14:10 41.34263 -113.83814 15981 ft 364 kts 353°
2026-04-18 14:11 41.36731 -113.84364 15979 ft 362 kts 341°
2026-04-18 14:11 41.38997 -113.85573 15966 ft 361 kts 335°
2026-04-18 14:11 41.41338 -113.86924 15967 ft 361 kts 335°
2026-04-18 14:11 41.43637 -113.88242 15968 ft 361 kts 335°
2026-04-18 14:12 41.45942 -113.89565 15968 ft 361 kts 335°
2026-04-18 14:12 41.48243 -113.90884 15964 ft 361 kts 335°
2026-04-18 14:12 41.50570 -113.92220 15959 ft 362 kts 335°
2026-04-18 14:12 41.52879 -113.93546 15956 ft 362 kts 335°
2026-04-18 14:13 41.55207 -113.94884 15947 ft 362 kts 335°
2026-04-18 14:13 41.57538 -113.96223 15938 ft 362 kts 335°
2026-04-18 14:13 41.59831 -113.97542 15932 ft 362 kts 336°
2026-04-18 14:13 41.62154 -113.98878 15927 ft 363 kts 335°
2026-04-18 14:14 41.64475 -114.00215 15922 ft 363 kts 336°
2026-04-18 14:14 41.66792 -114.01550 15918 ft 363 kts 336°
2026-04-18 14:14 41.69135 -114.02901 15922 ft 363 kts 336°
2026-04-18 14:14 41.70654 -114.03777 15922 ft 363 kts 336°
2026-04-18 14:15 41.73766 -114.05573 15919 ft 363 kts 335°
2026-04-18 14:15 41.75994 -114.06860 15922 ft 363 kts 335°
2026-04-18 14:15 41.77539 -114.07754 15919 ft 363 kts 335°
2026-04-18 14:15 41.80642 -114.09549 15926 ft 363 kts 335°
2026-04-18 14:16 41.82959 -114.10889 15932 ft 363 kts 335°
2026-04-18 14:16 41.85270 -114.12229 15937 ft 363 kts 335°
2026-04-18 14:16 41.87603 -114.13582 15944 ft 363 kts 335°
2026-04-18 14:16 41.89825 -114.14871 15945 ft 363 kts 335°
2026-04-18 14:17 41.92096 -114.16190 15949 ft 363 kts 335°
2026-04-18 14:17 41.94383 -114.17519 15950 ft 363 kts 335°
2026-04-18 14:17 41.99022 -114.20219 15956 ft 363 kts 335°
2026-04-18 14:18 42.03665 -114.22924 15953 ft 363 kts 335°
2026-04-18 14:18 42.06001 -114.24287 15951 ft 363 kts 335°
2026-04-18 14:19 42.10646 -114.27000 15947 ft 363 kts 335°
2026-04-18 14:19 42.13000 -114.28377 15943 ft 363 kts 335°
2026-04-18 14:19 42.17670 -114.31110 15962 ft 358 kts 335°
2026-04-18 14:20 42.19878 -114.32401 15814 ft 341 kts 335°
2026-04-18 14:20 42.22089 -114.33506 15309 ft 336 kts 345°
2026-04-18 14:20 42.24417 -114.33818 14681 ft 336 kts
2026-04-18 14:20 42.26701 -114.33270 14000 ft 339 kts 16°
2026-04-18 14:21 42.28855 -114.31955 13151 ft 346 kts 30°
2026-04-18 14:21 42.30850 -114.29994 12248 ft 351 kts 39°
2026-04-18 14:21 42.32056 -114.28535 11610 ft 348 kts 42°
2026-04-18 14:22 42.36314 -114.24000 10029 ft 318 kts 31°
2026-04-18 14:22 42.38121 -114.22643 9605 ft 304 kts 26°
2026-04-18 14:22 42.41925 -114.20675 8806 ft 282 kts 15°
2026-04-18 14:23 42.43832 -114.20061 8355 ft 276 kts 11°
2026-04-18 14:23 42.47384 -114.20762 7399 ft 262 kts 317°
2026-04-18 14:23 42.48286 -114.22815 7007 ft 255 kts 280°
2026-04-18 14:24 42.47600 -114.27366 6380 ft 245 kts 264°
2026-04-18 14:24 42.47668 -114.29655 6197 ft 232 kts 275°
2026-04-18 14:24 42.47778 -114.31710 6238 ft 204 kts 271°
2026-04-18 14:25 42.47823 -114.33558 6130 ft 190 kts 270°
2026-04-18 14:25 42.47858 -114.35331 5843 ft 184 kts 270°
2026-04-18 14:25 42.47890 -114.37062 5663 ft 175 kts 270°
2026-04-18 14:25 42.47919 -114.38609 5427 ft 157 kts 270°
2026-04-18 14:26 42.47937 -114.39588 5285 ft 152 kts 269°
2026-04-18 14:26 42.47969 -114.41409 5018 ft 147 kts 269°
2026-04-18 14:26 42.48008 -114.42784 4820 ft 145 kts 271°
2026-04-18 14:26 42.48033 -114.44158 4628 ft 143 kts 269°
2026-04-18 14:27 42.48047 -114.45501 4434 ft 142 kts 269°
2026-04-18 14:27 42.48066 -114.46836 4242 ft 142 kts 270°
2026-04-18 14:27 42.48089 -114.48132 4151 ft 124 kts 269°
2026-04-18 14:27 42.48104 -114.49075 4149 ft 73 kts 271°
2026-04-18 14:28 42.48127 -114.49356 4147 ft 10 kts 327°
2026-04-18 14:28 42.48183 -114.49365 4146 ft 6 kts
2026-04-18 14:28 42.48224 -114.49365 4144 ft 8 kts
2026-04-18 14:28 42.48248 -114.49281 4144 ft 11 kts 92°
2026-04-18 14:29 42.48246 -114.49160 4144 ft 13 kts 91°
2026-04-18 14:29 42.48244 -114.49017 4144 ft 16 kts 91°
2026-04-18 14:29 42.48240 -114.48854 4144 ft 18 kts 89°
2026-04-18 14:29 42.48239 -114.48682 4145 ft 10 kts 91°
2026-04-18 14:30 42.48273 -114.48596 4144 ft 13 kts 11°
2026-04-18 14:30 42.48325 -114.48611 4142 ft 9 kts 320°
2026-04-18 14:30 42.48378 -114.48690 4138 ft 4 kts 276°
2026-04-18 14:30 42.48373 -114.48701 4139 ft 0 kts 226°
2026-04-18 14:31 42.48370 -114.48704 4139 ft 1 kts 226°
2026-04-18 14:31 42.48369 -114.48707 4139 ft 0 kts 226°